This demonstration page uses our WeatherBlox Daily Observations layout. Learn more.

Hourly Observations for March 14, 2020

Temp ( °F °C ) Dew Point ( °F °C ) Humidity (%) Winds ( mph kmh ) Pressure ( in mb ) Visibility ( mi km ) Precip ( " mm )
12:15 am 00:15 Cloudy with Light Snow 31 -0.5 30 -1 96 96 E 15 24 30.35 1028 4 6.43736 0 0
12:35 am 00:35 Cloudy with Light Snow 31 -0.3 30 -1 95 95 E 14 22 30.37 1028 5 8.0467 0 0
12:55 am 00:55 Cloudy with Light Snow 31 -0.3 30 -1 95 95 E 16 26 30.35 1028 1.75 2.816345 0 0
1:15 am 01:15 Cloudy with Light Snow 31 -0.3 30 -1 95 95 E 14 22 30.36 1028 1.75 2.816345 0 0
1:35 am 01:35 Cloudy with Light Snow 31 -0.3 31 -0.8 96 96 E 13 20 30.37 1028 2 3.21868 0 0
1:55 am 01:55 Cloudy with Light Snow 31 -0.3 31 -0.8 96 96 E 14 22 30.36 1028 1.75 2.816345 0 0
2:15 am 02:15 Cloudy with Heavy Snow 31 -0.3 31 -0.8 96 96 E 12 19 30.36 1028 0.5 0.80467 0.01 0.254
2:35 am 02:35 Cloudy with Light Snow 31 -0.3 31 -0.8 96 96 E 14 22 30.35 1028 1.25 2.011675 0.02 0.508
2:55 am 02:55 Cloudy with Light Snow 31 -0.3 31 -0.8 96 96 E 13 20 30.35 1028 1.75 2.816345 0.02 0.508
3:15 am 03:15 Cloudy with Light Snow 31 -0.3 31 -0.8 96 96 E 13 20 30.35 1028 1.25 2.011675 0 0
3:35 am 03:35 Cloudy with Light Snow 31 -0.3 31 -0.8 96 96 E 13 20 30.35 1028 1.75 2.816345 0 0
3:55 am 03:55 Cloudy with Light Snow 31 -0.3 31 -0.8 96 96 E 12 19 30.35 1028 1.75 2.816345 0.01 0.254
4:15 am 04:15 Cloudy with Light Snow 32 -0.2 31 -0.7 96 96 E 12 19 30.35 1028 2.5 4.02335 0 0
4:35 am 04:35 Cloudy with Light Snow 32 -0.2 31 -0.7 96 96 E 10 17 30.35 1028 2.5 4.02335 0 0
4:55 am 04:55 Cloudy with Light Snow 32 -0.2 31 -0.8 96 96 E 14 22 30.33 1027 2 3.21868 0 0
5:15 am 05:15 Cloudy with Light Snow 31 -0.3 31 -0.8 96 96 E 13 20 30.34 1027 2.5 4.02335 0 0
5:35 am 05:35 Cloudy with Light Snow 31 -0.3 30 -0.9 96 96 E 10 17 30.34 1027 2.5 4.02335 0 0
5:55 am 05:55 Cloudy with Light Snow 32 -0.2 31 -0.8 96 96 E 12 19 30.34 1027 2.5 4.02335 0 0
6:15 am 06:15 Cloudy with Light Snow 32 -0.2 31 -0.7 96 96 E 15 24 30.34 1027 2.5 4.02335 0 0
6:35 am 06:35 Cloudy with Light Snow 32 -0.1 31 -0.7 96 96 E 16 26 30.34 1027 3 4.82802 0 0
6:55 am 06:55 Cloudy with Mist and Fog 32 0 31 -0.6 96 96 E 20 31 30.35 1028 5 8.0467 0 0
7:15 am 07:15 Cloudy 32 0 31 -0.6 96 96 E 18 30 30.36 1028 7 11.26538 0 0
7:35 am 07:35 Cloudy 32 0 31 -0.6 96 96 E 17 28 30.37 1028 7 11.26538 0 0
7:55 am 07:55 Cloudy 32 0 31 -0.5 96 96 E 15 24 30.38 1029 10 16.0934 0 0
8:15 am 08:15 Cloudy 32 0 31 -0.6 96 96 E 21 33 30.37 1028 10 16.0934 0 0
8:35 am 08:35 Cloudy with Mist and Fog 32 0 31 -0.6 96 96 E 18 30 30.38 1029 5 8.0467 0 0
8:55 am 08:55 Cloudy 32 0 31 -0.5 96 96 E 17 28 30.39 1029 10 16.0934 0 0
9:15 am 09:15 Cloudy 32 0 31 -0.5 96 96 E 17 28 30.39 1029 10 16.0934 0 0
9:35 am 09:35 Cloudy 32 0 31 -0.5 96 96 E 20 31 30.4 1029 10 16.0934 0 0
9:55 am 09:55 Cloudy 32 0 31 -0.5 96 96 E 21 33 30.4 1029 10 16.0934 0 0
10:15 am 10:15 Cloudy 32 0 31 -0.5 96 96 E 18 30 30.41 1030 10 16.0934 0 0
10:35 am 10:35 Cloudy 32 0 31 -0.5 96 96 E 17 28 30.42 1030 10 16.0934 0 0
10:55 am 10:55 Cloudy 32 0.1 31 -0.5 96 96 E 18 30 30.41 1030 7 11.26538 0 0
11:15 am 11:15 Cloudy 32 0.2 31 -0.5 95 95 E 20 31 30.43 1031 10 16.0934 0 0
11:35 am 11:35 Cloudy 32 0.2 31 -0.5 95 95 E 18 30 30.43 1031 10 16.0934 0 0
11:55 am 11:55 Cloudy 33 0.3 31 -0.5 94 94 E 20 31 30.43 1031 10 16.0934 0 0
12:15 pm 12:15 Cloudy 33 0.3 31 -0.5 94 94 E 17 28 30.43 1031 10 16.0934 0 0
12:35 pm 12:35 Cloudy 33 0.5 31 -0.5 93 93 E 18 30 30.43 1031 10 16.0934 0 0
12:55 pm 12:55 Cloudy 33 0.5 31 -0.5 93 93 E 20 31 30.44 1031 7 11.26538 0 0
1:15 pm 13:15 Cloudy with Mist and Fog 33 0.5 31 -0.4 94 94 E 16 26 30.45 1031 2.5 4.02335 0 0
1:35 pm 13:35 Cloudy with Mist and Fog 33 0.5 32 -0.2 95 95 E 21 33 30.44 1031 2 3.21868 0 0
1:55 pm 13:55 Cloudy with Mist and Fog 33 0.5 31 -0.3 94 94 E 17 28 30.44 1031 2 3.21868 0 0
2:15 pm 14:15 Cloudy with Mist and Fog 33 0.5 32 -0.1 96 96 E 18 30 30.44 1031 2 3.21868 0 0
2:35 pm 14:35 Cloudy with Mist and Fog 33 0.5 32 -0.2 95 95 E 20 31 30.43 1031 3 4.82802 0 0
2:55 pm 14:55 Cloudy with Mist and Fog 33 0.5 32 -0.2 95 95 E 16 26 30.43 1031 3 4.82802 0 0
3:15 pm 15:15 Cloudy with Mist and Fog 33 0.5 32 -0.2 95 95 E 17 28 30.44 1031 2.5 4.02335 0 0
3:35 pm 15:35 Cloudy with Mist and Fog 33 0.5 32 -0.2 95 95 E 18 30 30.44 1031 4 6.43736 0 0
3:55 pm 15:55 Cloudy with Mist and Fog 33 0.5 32 -0.2 95 95 E 16 26 30.44 1031 3 4.82802 0 0
4:15 pm 16:15 Cloudy with Mist and Fog 33 0.3 31 -0.5 94 94 E 15 24 30.45 1031 5 8.0467 0 0
4:35 pm 16:35 Cloudy 33 0.5 31 -0.3 94 94 E 16 26 30.45 1031 10 16.0934 0 0
4:55 pm 16:55 Cloudy 33 0.3 31 -0.5 94 94 E 10 17 30.46 1032 7 11.26538 0 0
5:15 pm 17:15 Cloudy with Mist and Fog 32 0 31 -0.5 96 96 E 15 24 30.47 1032 1.75 2.816345 0 0
5:35 pm 17:35 Cloudy with Mist and Fog 32 -0.1 31 -0.7 96 96 E 14 22 30.48 1032 0.75 1.207005 0 0
5:55 pm 17:55 Cloudy with Mist and Fog 32 -0.2 31 -0.7 96 96 E 15 24 30.48 1032 0.75 1.207005 0 0
6:15 pm 18:15 Cloudy with Mist and Fog 31 -0.3 31 -0.7 97 97 E 13 20 30.49 1032 0.75 1.207005 0 0
6:35 pm 18:35 Cloudy with Mist and Fog 31 -0.3 31 -0.7 97 97 E 14 22 30.5 1033 1.25 2.011675 0 0
6:55 pm 18:55 Cloudy with Mist and Fog 32 -0.2 31 -0.6 97 97 E 12 19 30.51 1033 1.75 2.816345 0 0
7:15 pm 19:15 Cloudy with Mist and Fog 32 -0.2 31 -0.6 97 97 E 12 19 30.52 1033 5 8.0467 0 0
7:35 pm 19:35 Cloudy with Mist and Fog 31 -0.3 31 -0.8 96 96 E 12 19 30.53 1034 4 6.43736 0 0
7:55 pm 19:55 Cloudy 31 -0.3 30 -1 95 95 E 13 20 30.54 1034 7 11.26538 0 0
8:15 pm 20:15 Cloudy with Mist and Fog 31 -0.5 30 -1 96 96 E 12 19 30.54 1034 5 8.0467 0 0
8:35 pm 20:35 Cloudy 31 -0.5 30 -1.1 96 96 E 14 22 30.54 1034 7 11.26538 0 0
8:55 pm 20:55 Cloudy 31 -0.5 30 -1.1 96 96 E 12 19 30.55 1035 7 11.26538 0 0
9:15 pm 21:15 Cloudy with Mist and Fog 31 -0.5 30 -1.1 96 96 E 13 20 30.55 1035 4 6.43736 0 0
9:35 pm 21:35 Cloudy with Mist and Fog 31 -0.6 30 -1.1 96 96 E 12 19 30.56 1035 3 4.82802 0 0
9:55 pm 21:55 Cloudy with Mist and Fog 31 -0.6 30 -1.1 96 96 E 12 19 30.57 1035 2.5 4.02335 0 0
10:15 pm 22:15 Cloudy with Mist and Fog 31 -0.7 30 -1.1 97 97 E 10 17 30.57 1035 1.25 2.011675 0 0
10:35 pm 22:35 Cloudy with Mist and Fog 31 -0.7 30 -1.1 97 97 E 12 19 30.58 1036 2 3.21868 0 0
10:55 pm 22:55 Cloudy with Mist and Fog 31 -0.7 30 -1.1 97 97 E 14 22 30.57 1035 1.25 2.011675 0 0
11:15 pm 23:15 Cloudy with Mist and Fog 31 -0.7 30 -1 98 98 E 12 19 30.58 1036 1.25 2.011675 0 0
11:35 pm 23:35 Cloudy with Mist and Fog 31 -0.7 30 -1 98 98 E 12 19 30.59 1036 0.75 1.207005 0 0
11:55 pm 23:55 Cloudy with Mist and Fog 31 -0.6 30 -0.9 98 98 ESE 14 22 30.59 1036 0.75 1.207005 0 0

Powered by AerisWeather